Location: Unspecified
(0.0000°N, 0.0000°E)
Time: 20:56:27
(UTC+02:00)

Cosmos 1538 Rocket - Visible Passes

Search period start: 24 June 2018 00:00
Search period end: 04 July 2018 00:00
Orbit: 751 x 793 km, 74.0° (Epoch: 24 June)

Date Brightness Start Highest point End Pass type
(mag) Time Alt. Az. Time Alt. Az. Time Alt. Az.
24 Jun 4.4 06:10:17 10° N 06:15:32 63° ENE 06:20:44 10° SSE visible
25 Jun 5.7 05:35:07 10° NNE 05:39:47 31° ENE 05:44:24 10° SE visible
25 Jun 5.5 07:18:41 10° WNW 07:21:37 15° WSW 07:24:34 10° SW visible
26 Jun 6.6 05:00:50 10° NE 05:04:00 16° ENE 05:05:49 14° E visible
26 Jun 4.8 06:41:19 10° NW 06:45:50 29° WSW 06:45:50 29° WSW visible
27 Jun 5.3 06:04:55 10° NNW 06:07:19 27° NNW 06:07:19 27° NNW visible
28 Jun 6.4 05:29:06 10° N 05:29:55 15° N 05:29:55 15° N visible
